| time (UTC) | temp F | wind direction | speed MPH | gust MPH | rain 1hr in | rain 24hr in | rain mn in | humidity % | barometer mb |
| 20260831230142 | 96 | 83 | 3.0 | 10.0 | 0.00 | 0.00 | 0.00 | 31 | 1013.4 |
| 20260831230010 | 96 | 89 | 4.0 | 10.0 | 0.00 | 0.00 | 0.00 | 43 | 1012.6 |
| 20260831224609 | 96 | 91 | 3.0 | 11.0 | 0.00 | 0.00 | 0.00 | 32 | 1013.5 |
| 20260831224508 | 96 | 97 | 3.0 | 11.0 | 0.00 | 0.00 | 0.00 | 43 | 1012.7 |
| 20260831223105 | 96 | 78 | 4.0 | 11.0 | 0.00 | 0.00 | 0.00 | 32 | 1013.5 |
| 20260831223007 | 96 | 87 | 3.0 | 11.0 | 0.00 | 0.00 | 0.00 | 44 | 1012.7 |
| 20260831221630 | 95 | 119 | 2.0 | 10.0 | 0.00 | 0.00 | 0.00 | 35 | 1013.6 |
| 20260831221505 | 95 | 99 | 2.0 | 10.0 | 0.00 | 0.00 | 0.00 | 47 | 1012.8 |
| 20260831220112 | 94 | 126 | 2.0 | 10.0 | 0.00 | 0.00 | 0.00 | 35 | 1013.6 |
| 20260831220003 | 94 | 140 | 2.0 | 7.0 | 0.00 | 0.00 | 0.00 | 47 | 1013.0 |
| 20260831214601 | 94 | 117 | 2.0 | 7.0 | 0.00 | 0.00 | 0.00 | 35 | 1013.7 |
| 20260831214503 | 94 | 95 | 3.0 | 7.0 | 0.00 | 0.00 | 0.00 | 46 | 1013.1 |
| 20260831213119 | 95 | 57 | 3.0 | 6.0 | 0.00 | 0.00 | 0.00 | 35 | 1013.8 |
| 20260831213003 | 95 | 64 | 3.0 | 6.0 | 0.00 | 0.00 | 0.00 | 46 | 1013.2 |
| 20260831211616 | 96 | 81 | 1.0 | 6.0 | 0.00 | 0.00 | 0.00 | 33 | 1013.9 |
| 20260831211604 | 96 | 82 | 1.0 | 7.0 | 0.00 | 0.00 | 0.00 | 45 | 1013.3 |
| 20260831210114 | 98 | 73 | 2.0 | 9.0 | 0.00 | 0.00 | 0.00 | 43 | 1013.5 |
| 20260831210103 | 98 | 73 | 3.0 | 9.0 | 0.00 | 0.00 | 0.00 | 31 | 1014.0 |
| 20260831204606 | 97 | 170 | 3.0 | 10.0 | 0.00 | 0.00 | 0.00 | 33 | 1014.1 |
| 20260831204558 | 97 | 174 | 2.0 | 9.0 | 0.00 | 0.00 | 0.00 | 45 | 1013.5 |
| 20260831203104 | 97 | 92 | 5.0 | 14.0 | 0.00 | 0.00 | 0.00 | 34 | 1014.4 |
| 20260831203101 | 97 | 92 | 5.0 | 12.0 | 0.00 | 0.00 | 0.00 | 46 | 1013.7 |
| 20260831201611 | 95 | 125 | 6.0 | 11.0 | 0.00 | 0.00 | 0.00 | 36 | 1014.4 |
| 20260831201548 | 95 | 136 | 7.0 | 10.0 | 0.00 | 0.00 | 0.00 | 47 | 1013.8 |
| 20260831200107 | 95 | 182 | 4.0 | 9.0 | 0.00 | 0.00 | 0.00 | 37 | 1014.7 |
| 20260831200045 | 95 | 183 | 4.0 | 8.0 | 0.00 | 0.00 | 0.00 | 48 | 1014.2 |
| 20260831194703 | 94 | 144 | 2.0 | 9.0 | 0.00 | 0.00 | 0.00 | 36 | 1014.9 |
| 20260831194545 | 94 | 144 | 2.0 | 9.0 | 0.00 | 0.00 | 0.00 | 48 | 1014.4 |
| 20260831193103 | 94 | 38 | 3.0 | 8.0 | 0.00 | 0.00 | 0.00 | 35 | 1015.2 |
| 20260831193044 | 94 | 37 | 4.0 | 9.0 | 0.00 | 0.00 | 0.00 | 47 | 1014.7 |
| 20260831191613 | 95 | 77 | 4.0 | 10.0 | 0.00 | 0.00 | 0.00 | 37 | 1015.2 |
| 20260831191552 | 95 | 77 | 4.0 | 11.0 | 0.00 | 0.00 | 0.00 | 48 | 1014.8 |
| 20260831190111 | 93 | 118 | 2.0 | 10.0 | 0.00 | 0.00 | 0.00 | 38 | 1015.4 |
| 20260831190046 | 93 | 118 | 1.0 | 10.0 | 0.00 | 0.00 | 0.00 | 50 | 1015.0 |
| 20260831184617 | 93 | 63 | 3.0 | 9.0 | 0.00 | 0.00 | 0.00 | 38 | 1015.7 |
| 20260831184541 | 93 | 53 | 3.0 | 9.0 | 0.00 | 0.00 | 0.00 | 50 | 1015.1 |
| 20260831183104 | 94 | 139 | 3.0 | 9.0 | 0.00 | 0.00 | 0.00 | 37 | 1015.9 |
| 20260831183041 | 94 | 139 | 3.0 | 7.0 | 0.00 | 0.00 | 0.00 | 49 | 1015.4 |
| 20260831181602 | 95 | 144 | 2.0 | 6.0 | 0.00 | 0.00 | 0.00 | 38 | 1015.9 |
| 20260831181538 | 95 | 144 | 1.0 | 5.0 | 0.00 | 0.00 | 0.00 | 49 | 1015.4 |
| 20260831180108 | 93 | 111 | 1.0 | 5.0 | 0.00 | 0.00 | 0.00 | 40 | 1016.2 |
| 20260831180035 | 93 | 121 | 2.0 | 6.0 | 0.00 | 0.00 | 0.00 | 52 | 1015.6 |
| 20260831174606 | 93 | 0 | 3.0 | 8.0 | 0.00 | 0.00 | 0.00 | 42 | 1016.3 |
| 20260831174533 | 93 | 140 | 2.0 | 8.0 | 0.00 | 0.00 | 0.00 | 53 | 1015.8 |
| 20260831173104 | 91 | 144 | 2.0 | 5.0 | 0.00 | 0.00 | 0.00 | 44 | 1016.5 |
| 20260831173029 | 91 | 144 | 2.0 | 4.0 | 0.00 | 0.00 | 0.00 | 55 | 1016.1 |
| 20260831171559 | 91 | 61 | 2.0 | 6.0 | 0.00 | 0.00 | 0.00 | 45 | 1016.6 |
| 20260831171529 | 91 | 61 | 3.0 | 6.0 | 0.00 | 0.00 | 0.00 | 56 | 1016.4 |
| 20260831170132 | 91 | 42 | 2.0 | 8.0 | 0.00 | 0.00 | 0.00 | 46 | 1016.8 |
| 20260831170027 | 91 | 333 | 2.0 | 8.0 | 0.00 | 0.00 | 0.00 | 57 | 1016.6 |
| 20260831164603 | 90 | 348 | 1.0 | 8.0 | 0.00 | 0.00 | 0.00 | 46 | 1016.9 |
| 20260831164538 | 90 | 348 | 1.0 | 8.0 | 0.00 | 0.00 | 0.00 | 57 | 1016.7 |
| 20260831163105 | 90 | 346 | 1.0 | 6.0 | 0.00 | 0.00 | 0.00 | 46 | 1017.0 |
| 20260831163026 | 90 | 347 | 1.0 | 6.0 | 0.00 | 0.00 | 0.00 | 58 | 1017.0 |
| 20260831161616 | 91 | 37 | 0.0 | 5.0 | 0.00 | 0.00 | 0.00 | 48 | 1017.1 |
| 20260831161525 | 91 | 38 | 1.0 | 4.0 | 0.00 | 0.00 | 0.00 | 60 | 1017.0 |
| 20260831160104 | 90 | 134 | 1.0 | 6.0 | 0.00 | 0.00 | 0.00 | 50 | 1017.3 |
| 20260831160022 | 90 | 134 | 1.0 | 5.0 | 0.00 | 0.00 | 0.00 | 61 | 1017.1 |
| 20260831154631 | 88 | 226 | 1.0 | 5.0 | 0.00 | 0.00 | 0.00 | 52 | 1017.3 |
| 20260831154519 | 88 | 226 | 1.0 | 5.0 | 0.00 | 0.00 | 0.00 | 64 | 1017.1 |
| 20260831153105 | 87 | 50 | 1.0 | 8.0 | 0.00 | 0.00 | 0.00 | 54 | 1017.3 |
| 20260831153017 | 87 | 50 | 1.0 | 6.0 | 0.00 | 0.00 | 0.00 | 65 | 1017.0 |
| 20260831151605 | 87 | 0 | 1.0 | 4.0 | 0.00 | 0.00 | 0.00 | 54 | 1017.3 |
| 20260831151514 | 86 | 5 | 2.0 | 4.0 | 0.00 | 0.00 | 0.00 | 66 | 1017.1 |
| 20260831150104 | 85 | 360 | 2.0 | 5.0 | 0.00 | 0.00 | 0.00 | 56 | 1017.2 |
| 20260831150012 | 85 | 360 | 2.0 | 5.0 | 0.00 | 0.00 | 0.00 | 68 | 1016.9 |
| 20260831144604 | 84 | 355 | 1.0 | 8.0 | 0.00 | 0.00 | 0.00 | 57 | 1017.2 |
| 20260831144508 | 84 | 355 | 1.0 | 6.0 | 0.00 | 0.00 | 0.00 | 69 | 1016.9 |
| 20260831143112 | 84 | 344 | 2.0 | 5.0 | 0.00 | 0.00 | 0.00 | 57 | 1017.1 |
| 20260831143006 | 83 | 355 | 2.0 | 5.0 | 0.00 | 0.00 | 0.00 | 68 | 1016.9 |
| 20260831141606 | 83 | 260 | 1.0 | 3.0 | 0.00 | 0.00 | 0.00 | 57 | 1017.0 |
| 20260831141503 | 83 | 229 | 1.0 | 3.0 | 0.00 | 0.00 | 0.00 | 68 | 1016.8 |
| 20260831134604 | 80 | 0 | 0.0 | 0.0 | 0.00 | 0.00 | 0.00 | 54 | 1016.8 |
| 20260831134559 | 80 | 197 | 0.0 | 0.0 | 0.00 | 0.00 | 0.00 | 66 | 1016.6 |
| 20260831133101 | 77 | 0 | 0.0 | 0.0 | 0.00 | 0.00 | 0.00 | 54 | 1016.6 |
| 20260831133057 | 77 | 197 | 0.0 | 0.0 | 0.00 | 0.00 | 0.00 | 65 | 1016.5 |
| 20260831131610 | 75 | 0 | 0.0 | 0.0 | 0.00 | 0.00 | 0.00 | 55 | 1016.4 |
| 20260831131556 | 75 | 197 | 0.0 | 0.0 | 0.00 | 0.00 | 0.00 | 66 | 1016.3 |
| 20260831130108 | 73 | 0 | 0.0 | 0.0 | 0.00 | 0.00 | 0.00 | 56 | 1016.3 |
| 20260831130055 | 73 | 197 | 0.0 | 0.0 | 0.00 | 0.00 | 0.00 | 67 | 1016.3 |
| 20260831124601 | 71 | 360 | 0.0 | 0.0 | 0.00 | 0.00 | 0.00 | 68 | 1016.0 |
| 20260831123103 | 70 | 0 | 0.0 | 0.0 | 0.00 | 0.00 | 0.00 | 57 | 1016.0 |
| 20260831123051 | 70 | 197 | 0.0 | 0.0 | 0.00 | 0.00 | 0.00 | 69 | 1015.8 |
| 20260831121607 | 70 | 0 | 0.0 | 0.0 | 0.00 | 0.00 | 0.00 | 58 | 1015.9 |
| 20260831121549 | 70 | 360 | 0.0 | 0.0 | 0.00 | 0.00 | 0.00 | 70 | 1015.6 |
| 20260831120143 | 70 | 0 | 0.0 | 0.0 | 0.00 | 0.00 | 0.00 | 59 | 1015.8 |
| 20260831120049 | 70 | 360 | 0.0 | 0.0 | 0.00 | 0.00 | 0.00 | 71 | 1015.5 |
| 20260831114604 | 70 | 0 | 0.0 | 0.0 | 0.00 | 0.00 | 0.00 | 59 | 1015.6 |
| 20260831114552 | 70 | 360 | 0.0 | 0.0 | 0.00 | 0.00 | 0.00 | 71 | 1015.3 |
| 20260831113111 | 70 | 0 | 0.0 | 0.0 | 0.00 | 0.00 | 0.00 | 59 | 1015.4 |
| 20260831113045 | 70 | 360 | 0.0 | 0.0 | 0.00 | 0.00 | 0.00 | 70 | 1015.1 |
| 20260831111612 | 70 | 0 | 0.0 | 0.0 | 0.00 | 0.00 | 0.00 | 59 | 1015.4 |
| 20260831111542 | 70 | 360 | 0.0 | 0.0 | 0.00 | 0.00 | 0.00 | 70 | 1014.9 |
| 20260831110104 | 70 | 0 | 0.0 | 0.0 | 0.00 | 0.00 | 0.00 | 59 | 1015.4 |
| 20260831110042 | 70 | 360 | 0.0 | 0.0 | 0.00 | 0.00 | 0.00 | 70 | 1015.0 |
| 20260831104605 | 71 | 0 | 0.0 | 0.0 | 0.00 | 0.00 | 0.00 | 59 | 1015.4 |
| 20260831104549 | 71 | 360 | 0.0 | 0.0 | 0.00 | 0.00 | 0.00 | 71 | 1014.9 |
| 20260831103111 | 71 | 0 | 0.0 | 0.0 | 0.00 | 0.00 | 0.00 | 60 | 1015.4 |
| 20260831103039 | 71 | 360 | 0.0 | 0.0 | 0.00 | 0.00 | 0.00 | 71 | 1015.0 |
| 20260831101605 | 71 | 0 | 0.0 | 0.0 | 0.00 | 0.00 | 0.00 | 60 | 1015.3 |
| 20260831101537 | 71 | 360 | 0.0 | 0.0 | 0.00 | 0.00 | 0.00 | 72 | 1014.9 |
| 20260831100106 | 71 | 0 | 0.0 | 0.0 | 0.00 | 0.00 | 0.00 | 60 | 1015.2 |
| 20260831100042 | 71 | 360 | 0.0 | 0.0 | 0.00 | 0.00 | 0.00 | 72 | 1014.8 |
| 20260831094607 | 72 | 0 | 0.0 | 0.0 | 0.00 | 0.00 | 0.00 | 61 | 1015.2 |
| 20260831094535 | 72 | 360 | 0.0 | 0.0 | 0.00 | 0.00 | 0.00 | 73 | 1014.7 |
| 20260831093105 | 71 | 0 | 0.0 | 0.0 | 0.00 | 0.00 | 0.00 | 62 | 1015.1 |
| 20260831093040 | 71 | 360 | 0.0 | 0.0 | 0.00 | 0.00 | 0.00 | 74 | 1014.6 |
| 20260831091614 | 72 | 0 | 0.0 | 0.0 | 0.00 | 0.00 | 0.00 | 62 | 1014.9 |
| 20260831091533 | 72 | 360 | 0.0 | 0.0 | 0.00 | 0.00 | 0.00 | 74 | 1014.5 |
| 20260831090109 | 72 | 0 | 0.0 | 0.0 | 0.00 | 0.00 | 0.00 | 63 | 1014.9 |
| 20260831090031 | 72 | 360 | 0.0 | 0.0 | 0.00 | 0.00 | 0.00 | 74 | 1014.5 |
| 20260831084604 | 72 | 0 | 0.0 | 0.0 | 0.00 | 0.00 | 0.00 | 62 | 1015.0 |
| 20260831084534 | 72 | 360 | 0.0 | 0.0 | 0.00 | 0.00 | 0.00 | 74 | 1014.5 |
| 20260831083113 | 73 | 0 | 0.0 | 0.0 | 0.00 | 0.00 | 0.00 | 62 | 1015.0 |
| 20260831083040 | 73 | 360 | 0.0 | 0.0 | 0.00 | 0.00 | 0.00 | 74 | 1014.7 |
| 20260831081608 | 73 | 0 | 0.0 | 0.0 | 0.00 | 0.00 | 0.00 | 61 | 1015.1 |
| 20260831081533 | 73 | 360 | 0.0 | 0.0 | 0.00 | 0.00 | 0.00 | 73 | 1014.6 |
| 20260831080112 | 73 | 0 | 0.0 | 0.0 | 0.00 | 0.00 | 0.00 | 61 | 1015.1 |
| 20260831080028 | 73 | 360 | 0.0 | 0.0 | 0.00 | 0.00 | 0.00 | 73 | 1014.6 |
| 20260831074604 | 74 | 0 | 0.0 | 0.0 | 0.00 | 0.00 | 0.00 | 61 | 1015.1 |
| 20260831074532 | 74 | 360 | 0.0 | 0.0 | 0.00 | 0.00 | 0.00 | 72 | 1014.7 |
| 20260831073107 | 74 | 0 | 0.0 | 0.0 | 0.00 | 0.00 | 0.00 | 61 | 1015.1 |
| 20260831073027 | 74 | 360 | 0.0 | 0.0 | 0.00 | 0.00 | 0.00 | 73 | 1014.7 |
| 20260831071603 | 75 | 0 | 0.0 | 0.0 | 0.00 | 0.00 | 0.00 | 60 | 1015.2 |
| 20260831071528 | 75 | 360 | 0.0 | 0.0 | 0.00 | 0.00 | 0.00 | 71 | 1014.8 |
| 20260831070105 | 75 | 0 | 0.0 | 0.0 | 0.00 | 0.00 | 0.00 | 60 | 1015.2 |
| 20260831070028 | 75 | 360 | 0.0 | 0.0 | 0.00 | 0.00 | 0.00 | 71 | 1014.7 |
| 20260831064608 | 76 | 0 | 0.0 | 0.0 | 0.00 | 0.00 | 0.00 | 58 | 1015.2 |
| 20260831064517 | 76 | 360 | 0.0 | 0.0 | 0.00 | 0.00 | 0.00 | 70 | 1014.8 |
| 20260831063103 | 76 | 0 | 0.0 | 0.0 | 0.00 | 0.00 | 0.00 | 57 | 1015.2 |
| 20260831063016 | 76 | 360 | 0.0 | 0.0 | 0.00 | 0.00 | 0.00 | 69 | 1014.8 |
| 20260831061601 | 77 | 0 | 0.0 | 0.0 | 0.00 | 0.00 | 0.00 | 57 | 1015.3 |
| 20260831061513 | 77 | 360 | 0.0 | 0.0 | 0.00 | 0.00 | 0.00 | 68 | 1014.8 |
| 20260831060111 | 78 | 0 | 0.0 | 0.0 | 0.00 | 0.00 | 0.00 | 56 | 1015.3 |
| 20260831060011 | 78 | 360 | 0.0 | 0.0 | 0.00 | 0.00 | 0.00 | 68 | 1014.8 |
| 20260831054621 | 79 | 0 | 0.0 | 0.0 | 0.00 | 0.00 | 0.00 | 54 | 1015.3 |
| 20260831054509 | 79 | 360 | 0.0 | 0.0 | 0.00 | 0.00 | 0.00 | 66 | 1014.8 |
| 20260831053102 | 80 | 0 | 0.0 | 0.0 | 0.00 | 0.00 | 0.00 | 54 | 1015.3 |
| 20260831053006 | 80 | 360 | 0.0 | 0.0 | 0.00 | 0.00 | 0.00 | 65 | 1014.7 |
| 20260831051603 | 81 | 0 | 0.0 | 0.0 | 0.00 | 0.00 | 0.00 | 52 | 1015.2 |
| 20260831051501 | 81 | 360 | 0.0 | 0.0 | 0.00 | 0.00 | 0.00 | 63 | 1014.6 |
| 20260831050113 | 81 | 360 | 0.0 | 0.0 | 0.00 | 0.00 | 0.00 | 62 | 1014.6 |
| 20260831050109 | 81 | 0 | 0.0 | 1.0 | 0.00 | 0.00 | 0.00 | 51 | 1015.1 |
| 20260831044619 | 82 | 360 | 0.0 | 3.0 | 0.00 | 0.00 | 0.00 | 62 | 1014.6 |
| 20260831044600 | 82 | 0 | 1.0 | 3.0 | 0.00 | 0.00 | 0.00 | 50 | 1015.2 |
| 20260831043102 | 83 | 360 | 1.0 | 6.0 | 0.00 | 0.00 | 0.00 | 50 | 1015.2 |
| 20260831043057 | 83 | 360 | 2.0 | 5.0 | 0.00 | 0.00 | 0.00 | 62 | 1014.6 |
| 20260831041629 | 83 | 360 | 1.0 | 3.0 | 0.00 | 0.00 | 0.00 | 49 | 1015.0 |
| 20260831041613 | 83 | 360 | 2.0 | 3.0 | 0.00 | 0.00 | 0.00 | 61 | 1014.4 |
| 20260831040108 | 84 | 169 | 1.0 | 6.0 | 0.00 | 0.00 | 0.00 | 47 | 1014.8 |
| 20260831040057 | 84 | 169 | 0.0 | 6.0 | 0.00 | 0.00 | 0.00 | 59 | 1014.2 |
| 20260831034603 | 85 | 137 | 1.0 | 4.0 | 0.00 | 0.00 | 0.00 | 59 | 1014.0 |
| 20260831034600 | 85 | 137 | 2.0 | 5.0 | 0.00 | 0.00 | 0.00 | 47 | 1014.7 |
| 20260831033106 | 85 | 360 | 1.0 | 4.0 | 0.00 | 0.00 | 0.00 | 47 | 1014.6 |
| 20260831033056 | 85 | 360 | 2.0 | 4.0 | 0.00 | 0.00 | 0.00 | 58 | 1013.8 |
| 20260831031610 | 84 | 360 | 1.0 | 5.0 | 0.00 | 0.00 | 0.00 | 47 | 1014.5 |
| 20260831031600 | 84 | 360 | 2.0 | 5.0 | 0.00 | 0.00 | 0.00 | 59 | 1013.9 |
| 20260831030118 | 83 | 360 | 1.0 | 4.0 | 0.00 | 0.00 | 0.00 | 48 | 1014.4 |
| 20260831030058 | 83 | 360 | 2.0 | 5.0 | 0.00 | 0.00 | 0.00 | 60 | 1013.6 |
| 20260831024612 | 82 | 360 | 0.0 | 2.0 | 0.00 | 0.00 | 0.00 | 60 | 1013.4 |
| 20260831024608 | 82 | 0 | 0.0 | 2.0 | 0.00 | 0.00 | 0.00 | 49 | 1014.2 |
| 20260831023101 | 81 | 360 | 1.0 | 4.0 | 0.00 | 0.00 | 0.00 | 49 | 1013.9 |
| 20260831023053 | 81 | 360 | 1.0 | 3.0 | 0.00 | 0.00 | 0.00 | 61 | 1013.1 |
| 20260831021602 | 81 | 0 | 0.0 | 0.0 | 0.00 | 0.00 | 0.00 | 50 | 1013.6 |
| 20260831021553 | 81 | 360 | 0.0 | 0.0 | 0.00 | 0.00 | 0.00 | 62 | 1012.9 |
| 20260831020107 | 81 | 360 | 0.0 | 0.0 | 0.00 | 0.00 | 0.00 | 60 | 1012.6 |
| 20260831020100 | 81 | 0 | 0.0 | 0.0 | 0.00 | 0.00 | 0.00 | 48 | 1013.3 |
| 20260831014602 | 83 | 360 | 0.0 | 0.0 | 0.00 | 0.00 | 0.00 | 59 | 1012.4 |
| 20260831013101 | 85 | 0 | 0.0 | 0.0 | 0.00 | 0.00 | 0.00 | 44 | 1013.0 |
| 20260831013052 | 85 | 360 | 0.0 | 0.0 | 0.00 | 0.00 | 0.00 | 55 | 1012.3 |
| 20260831011610 | 87 | 0 | 0.0 | 0.0 | 0.00 | 0.00 | 0.00 | 39 | 1012.9 |
| 20260831011559 | 87 | 360 | 0.0 | 0.0 | 0.00 | 0.00 | 0.00 | 51 | 1012.1 |
| 20260831010107 | 89 | 0 | 0.0 | 3.0 | 0.00 | 0.00 | 0.00 | 35 | 1012.7 |
| 20260831010051 | 89 | 360 | 0.0 | 2.0 | 0.00 | 0.00 | 0.00 | 47 | 1011.9 |
| 20260831004606 | 92 | 0 | 0.0 | 2.0 | 0.00 | 0.00 | 0.00 | 30 | 1012.6 |
| 20260831004550 | 92 | 112 | 0.0 | 2.0 | 0.00 | 0.00 | 0.00 | 42 | 1011.8 |
| 20260831003100 | 94 | 0 | 1.0 | 3.0 | 0.00 | 0.00 | 0.00 | 26 | 1012.5 |
| 20260831003050 | 94 | 112 | 0.0 | 3.0 | 0.00 | 0.00 | 0.00 | 38 | 1011.9 |
| 20260831001606 | 95 | 122 | 3.0 | 11.0 | 0.00 | 0.00 | 0.00 | 25 | 1012.6 |
| 20260831001554 | 95 | 122 | 3.0 | 11.0 | 0.00 | 0.00 | 0.00 | 37 | 1011.9 |
| 20260831000106 | 96 | 123 | 2.0 | 8.0 | 0.00 | 0.00 | 0.00 | 25 | 1012.7 |
| 20260831000050 | 96 | 123 | 2.0 | 8.0 | 0.00 | 0.00 | 0.00 | 36 | 1012.0 |
| 20260830234607 | 97 | 101 | 2.0 | 4.0 | 0.00 | 0.00 | 0.00 | 38 | 1011.9 |
| 20260830233106 | 97 | 128 | 2.0 | 8.0 | 0.00 | 0.00 | 0.00 | 26 | 1012.5 |
| 20260830233048 | 97 | 128 | 1.0 | 8.0 | 0.00 | 0.00 | 0.00 | 37 | 1011.9 |
| 20260830231605 | 98 | 135 | 2.0 | 6.0 | 0.00 | 0.00 | 0.00 | 25 | 1012.6 |
| 20260830231548 | 98 | 135 | 2.0 | 7.0 | 0.00 | 0.00 | 0.00 | 37 | 1011.8 |